Date String (YYYY-MM-DD hh:mm:ss) UTC,Instrument flags,Ambient pressure (hPa),Sample flow (lpm),Bypass flow (lpm),Sample temperature (°C),Ambient temperature (°C),ASC tube jacket temperature (°C),LED temperature (°C),Box temperature (°C),Sample RH (%),Span deviation,Mass concentration (μg/m³),Mass concentration (μg/m³),Mass concentration (μg/m³)
DateTimeUTC,F1_M11,P_M11,Q1_M11,Q2_M11,T1_M11,T2_M11,T3_M11,T4_M11,T5_M11,U1_M11,ZSPAN_M11,X0_M11,X2_M11,X1_M11
2021-10-11 08:00:00,,0821.8,5.00,0.00,29.4,28.4,00.0,38.6,31.1,09.8,0000.0,0003.31,0002.57,0002.26
2021-10-11 08:01:00,,0821.9,4.99,0.00,29.4,28.4,00.0,38.6,31.1,09.7,0000.0,0003.30,0002.57,0002.24
2021-10-11 08:02:00,,0822.0,5.01,0.00,29.4,28.4,00.0,38.6,31.1,09.7,0000.0,0003.30,0002.57,0002.23
2021-10-11 08:03:00,,0822.0,4.99,0.00,29.4,28.4,00.0,38.6,31.1,09.7,0000.0,0003.32,0002.56,0002.22
2021-10-11 08:04:00,,0822.0,4.99,0.00,29.4,28.4,00.0,38.6,31.1,09.7,0000.0,0003.36,0002.59,0002.22
2021-10-11 08:05:00,,0822.0,4.99,0.00,29.4,28.4,00.0,38.6,31.1,09.7,0000.0,0003.32,0002.58,0002.23
2021-10-11 08:06:00,,0822.0,5.01,0.00,29.4,28.3,00.0,38.6,31.1,09.8,0000.0,0003.25,0002.56,0002.22
2021-10-11 08:07:00,,0822.0,5.00,0.00,29.4,28.3,00.0,38.6,31.1,09.8,0000.0,0003.28,0002.58,0002.23
2021-10-11 08:08:00,,0821.9,5.01,0.00,29.4,28.3,00.0,38.6,31.0,09.8,0000.0,0003.23,0002.57,0002.24
2021-10-11 08:09:00,,0821.9,5.00,0.00,29.4,28.3,00.0,38.6,31.1,09.7,0000.0,0003.29,0002.59,0002.24
2021-10-11 08:10:00,,0822.2,5.00,0.00,29.4,28.3,00.0,38.6,31.0,09.7,0000.0,0003.31,0002.59,0002.24
2021-10-11 08:11:00,,0822.3,5.01,0.00,29.4,28.2,00.0,38.6,31.0,09.7,0000.0,0003.39,0002.61,0002.26
2021-10-11 08:12:00,,0822.0,5.01,0.00,29.3,28.2,00.0,38.5,31.0,09.7,0000.0,0003.35,0002.59,0002.26
2021-10-11 08:13:00,,0822.0,5.00,0.00,29.3,28.2,00.0,38.5,31.0,09.8,0000.0,0004.17,0002.62,0002.27
2021-10-11 08:14:00,,0822.0,5.00,0.00,29.3,28.2,00.0,38.5,31.0,09.9,0000.0,0004.63,0002.62,0002.27
2021-10-11 08:15:00,,0822.0,5.00,0.00,29.3,28.2,00.0,38.5,30.9,09.8,0000.0,0004.62,0002.60,0002.28
2021-10-11 08:16:00,,0822.0,5.00,0.00,29.3,28.2,00.0,38.5,30.9,09.8,0000.0,0004.61,0002.60,0002.28
2021-10-11 08:17:00,,0822.0,5.00,0.00,29.3,28.2,00.0,38.5,31.0,09.8,0000.0,0004.65,0002.62,0002.30
2021-10-11 08:18:00,,0822.0,4.99,0.00,29.3,28.2,00.0,38.5,30.9,09.8,0000.0,0004.62,0002.60,0002.29
2021-10-11 08:19:00,,0822.1,5.01,0.00,29.3,28.1,00.0,38.5,30.9,09.8,0000.0,0004.61,0002.58,0002.28
2021-10-11 08:20:00,,0822.1,5.00,0.00,29.3,28.1,00.0,38.5,30.9,09.8,0000.0,0004.50,0002.53,0002.28
2021-10-11 08:21:00,,0822.1,4.99,0.00,29.3,28.1,00.0,38.5,30.9,09.8,0000.0,0004.50,0002.53,0002.28
2021-10-11 08:22:00,,0822.1,5.01,0.00,29.2,28.1,00.0,38.5,30.9,09.8,0000.0,0004.48,0002.52,0002.28
2021-10-11 08:23:00,,0822.1,4.98,0.00,29.2,28.1,00.0,38.5,30.9,09.8,0000.0,0004.40,0002.50,0002.28
2021-10-11 08:24:00,,0822.1,5.00,0.00,29.2,28.1,00.0,38.5,30.9,09.8,0000.0,0003.79,0002.47,0002.27
2021-10-11 08:25:00,,0822.1,5.00,0.00,29.2,28.1,00.0,38.4,30.9,09.8,0000.0,0003.06,0002.44,0002.27
2021-10-11 08:26:00,,0822.1,5.00,0.00,29.2,28.1,00.0,38.4,30.8,09.8,0000.0,0004.35,0002.43,0002.26
2021-10-11 08:27:00,,0822.1,5.00,0.00,29.2,28.0,00.0,38.4,30.8,09.9,0000.0,0004.77,0002.42,0002.25
2021-10-11 08:28:00,,0822.1,5.00,0.00,29.2,28.0,00.0,38.4,30.8,09.9,0000.0,0004.76,0002.41,0002.23
2021-10-11 08:29:00,,0822.1,5.01,0.00,29.2,28.0,00.0,38.4,30.9,09.8,0000.0,0004.89,0002.45,0002.25
2021-10-11 08:30:00,,0822.1,5.00,0.00,29.2,28.0,00.0,38.4,30.9,09.8,0000.0,0004.92,0002.48,0002.25
2021-10-11 08:31:00,,0822.1,5.00,0.00,29.2,28.0,00.0,38.4,30.9,09.9,0000.0,0004.93,0002.50,0002.26
2021-10-11 08:32:00,,0822.1,4.99,0.00,29.2,27.9,00.0,38.4,30.9,09.9,0000.0,0004.95,0002.52,0002.27
2021-10-11 08:33:00,,0822.0,5.00,0.00,29.2,28.0,00.0,38.4,30.9,09.9,0000.0,0004.95,0002.53,0002.28
2021-10-11 08:34:00,,0822.1,5.01,0.00,29.2,28.0,00.0,38.4,30.8,09.9,0000.0,0005.02,0002.55,0002.30
2021-10-11 08:35:00,,0822.1,4.99,0.00,29.1,28.0,00.0,38.4,30.8,09.8,0000.0,0005.09,0002.60,0002.33
2021-10-11 08:36:00,,0822.1,5.01,0.00,29.1,28.0,00.0,38.4,30.8,09.9,0000.0,0005.16,0002.65,0002.36
2021-10-11 08:37:00,,0822.0,4.99,0.00,29.1,28.0,00.0,38.4,30.8,09.9,0000.0,0003.81,0002.69,0002.38
2021-10-11 08:38:00,,0822.1,5.01,0.00,29.1,28.0,00.0,38.3,30.8,09.9,0000.0,0003.63,0002.74,0002.40
2021-10-11 08:39:00,,0822.1,4.99,0.00,29.1,28.0,00.0,38.3,30.8,09.9,0000.0,0003.69,0002.77,0002.43
2021-10-11 08:40:00,,0822.1,5.00,0.00,29.1,28.0,00.0,38.3,30.8,09.8,0000.0,0003.62,0002.76,0002.43
2021-10-11 08:41:00,,0822.1,4.99,0.00,29.1,28.0,00.0,38.3,30.8,09.8,0000.0,0003.65,0002.78,0002.45
2021-10-11 08:42:00,,0822.1,5.01,0.00,29.1,28.0,00.0,38.3,30.8,09.8,0000.0,0003.74,0002.79,0002.46
2021-10-11 08:43:00,,0822.1,4.99,0.00,29.1,28.0,00.0,38.3,30.8,09.8,0000.0,0003.86,0002.83,0002.47
2021-10-11 08:44:00,,0822.1,5.02,0.00,29.1,28.0,00.0,38.3,30.7,09.8,0000.0,0003.82,0002.84,0002.49
2021-10-11 08:45:00,,0822.1,4.99,0.00,29.1,28.0,00.0,38.3,30.8,09.8,0000.0,0003.76,0002.84,0002.50
2021-10-11 08:46:00,,0822.1,5.01,0.00,29.1,28.0,00.0,38.3,30.8,09.8,0000.0,0003.67,0002.80,0002.49
2021-10-11 08:47:00,,0822.0,5.01,0.00,29.1,27.9,00.0,38.3,30.7,09.8,0000.0,0003.63,0002.77,0002.48
2021-10-11 08:48:00,,0822.1,4.99,0.00,29.1,27.9,00.0,38.3,30.7,09.9,0000.0,0003.61,0002.78,0002.48
2021-10-11 08:49:00,,0822.1,5.00,0.00,29.1,27.9,00.0,38.3,30.8,09.9,0000.0,0003.59,0002.79,0002.47
2021-10-11 08:50:00,,0822.1,5.00,0.00,29.0,27.9,00.0,38.3,30.7,09.8,0000.0,0003.60,0002.78,0002.45
2021-10-11 08:51:00,,0822.1,5.00,0.00,29.0,27.9,00.0,38.3,30.7,09.8,0000.0,0003.59,0002.76,0002.45
2021-10-11 08:52:00,,0822.1,5.00,0.00,29.0,27.8,00.0,38.2,30.7,09.8,0000.0,0003.50,0002.72,0002.43
2021-10-11 08:53:00,,0822.0,5.01,0.00,29.0,27.8,00.0,38.2,30.7,09.8,0000.0,0003.41,0002.69,0002.41
2021-10-11 08:54:00,,0822.0,5.00,0.00,29.0,27.8,00.0,38.2,30.7,09.8,0000.0,0003.28,0002.66,0002.39
2021-10-11 08:55:00,,0822.0,5.00,0.00,29.0,27.8,00.0,38.2,30.7,09.9,0000.0,0003.22,0002.61,0002.35
2021-10-11 08:56:00,,0822.0,5.00,0.00,29.0,27.8,00.0,38.2,30.7,09.9,0000.0,0003.19,0002.59,0002.32
2021-10-11 08:57:00,,0821.9,5.00,0.00,29.0,27.8,00.0,38.2,30.7,10.0,0000.0,0003.15,0002.56,0002.29
2021-10-11 08:58:00,,0821.9,5.00,0.00,29.0,27.8,00.0,38.2,30.7,10.1,0000.0,0003.14,0002.52,0002.26
2021-10-11 08:59:00,,0821.9,5.01,0.00,29.0,27.8,00.0,38.2,30.6,10.2,0000.0,0003.10,0002.48,0002.22
